Twentynine Palms, CA

8:02 AM PDT on October 23, 2017 (GMT -0700)
Twentynine Palms Expeditionary Air Field

Weather History for KNXP - June, 2013

Change the Weather History Date:

Wednesday, June 19, 2013

  Actual Average Record
Temperature  
Mean Temperature 81 °F -  
Max Temperature 97 °F 95 °F 115 °F (2017)
Min Temperature 66 °F 70 °F 64 °F (1998)
Cooling Degree Days 16    
Growing Degree Days 31 (Base 50)    
Moisture  
Dew Point 24 °F    
Average Humidity 17    
Maximum Humidity 40    
Minimum Humidity 4    
Precipitation  
Precipitation 0.00 in - - ()
Sea Level Pressure  
Sea Level Pressure 29.73 in    
Wind  
Wind Speed 13 mph (NW)    
Max Wind Speed 26 mph    
Max Gust Speed 37 mph    
Visibility 10 miles    
Events      
Averages and records for this station are not official NWS values.
T = Trace of Precipitation, MM = Missing Value Source: NWS Daily Summary

Daily Weather History Graph

Daily Weather History Graph

Search for Another Location

Airport or City:

Trip Planner

Search our weather history database for the weather conditions in past years. The results will help you decide how hot, cold, wet, or windy it might be!

Date:

Astronomy

Jun. 19, 2013 Rise Set
Actual Time 5:32 AM PDT 7:59 PM PDT
Civil Twilight 5:03 AM PDT 8:28 PM PDT
Nautical Twilight 4:27 AM PDT 9:05 PM PDT
Astronomical Twilight 3:47 AM PDT 9:44 PM PDT
Moon 4:03 PM PDT (6/19) 2:12 AM PDT (6/19)
Length of Visible Light 15h 25m
Length of Day
14h 26m
Waxing Gibbous, 81% of the Moon is Illuminated
Jun 19
Waxing Gibbous
Jun 23
Full
Jun 29
Last Quarter
Jul 8
New
Jul 15
First Quarter

Hourly Weather History & Observations

Time (PDT) Temp. Dew Point Humidity Pressure Visibility Wind Dir Wind Speed Gust Speed Precip Events Conditions
12:56 AM 75.0 °F 36.0 °F 24% 29.72 in 10.0 mi NW 8.1 mph - N/A   Clear
1:56 AM 73.0 °F 43.0 °F 34% 29.71 in 10.0 mi NW 11.5 mph - N/A   Clear
2:56 AM 71.1 °F 44.1 °F 38% 29.72 in 10.0 mi NW 13.8 mph - N/A   Clear
3:56 AM 70.0 °F 43.0 °F 38% 29.74 in 10.0 mi NW 17.3 mph 26.5 mph N/A   Clear
4:56 AM 66.9 °F 42.1 °F 40% 29.75 in 10.0 mi NW 23.0 mph 35.7 mph N/A   Clear
5:56 AM 66.9 °F 41.0 °F 39% 29.76 in 9.0 mi NNW 11.5 mph 24.2 mph N/A   Clear
6:56 AM 69.1 °F 39.0 °F 33% 29.75 in 9.0 mi WNW 26.5 mph 32.2 mph N/A   Clear
7:56 AM 72.0 °F 37.9 °F 29% 29.80 in 10.0 mi NNW 13.8 mph - N/A   Partly Cloudy
8:56 AM 75.9 °F 34.0 °F 22% 29.79 in 10.0 mi WNW 26.5 mph 34.5 mph N/A   Partly Cloudy
9:56 AM 80.1 °F 27.0 °F 14% 29.79 in 10.0 mi NNW 9.2 mph - N/A   Clear
10:56 AM 86.0 °F 18.0 °F 8% 29.78 in 10.0 mi NW 17.3 mph 28.8 mph N/A   Clear
11:56 AM 89.1 °F 18.0 °F 7% 29.76 in 10.0 mi NW 15.0 mph - N/A   Clear
12:56 PM 91.0 °F 17.1 °F 7% 29.75 in 10.0 mi NE 8.1 mph - N/A   Clear
1:56 PM 91.9 °F 14.0 °F 6% 29.73 in 10.0 mi NE 5.8 mph - N/A   Clear
2:56 PM 93.9 °F 8.1 °F 4% 29.71 in 10.0 mi Calm Calm - N/A   Clear
3:56 PM 96.1 °F 8.1 °F 4% 29.69 in 10.0 mi Calm Calm - N/A   Clear
4:56 PM 96.1 °F 3.9 °F 4% 29.68 in 10.0 mi NNW 8.1 mph - N/A   Clear
5:56 PM 95.0 °F 6.1 °F 4% 29.68 in 10.0 mi NW 8.1 mph - N/A   Clear
6:56 PM 93.9 °F 9.0 °F 4% 29.68 in 10.0 mi NW 13.8 mph - N/A   Clear
7:56 PM 89.1 °F 12.9 °F 6% 29.69 in 10.0 mi WNW 21.9 mph 25.3 mph N/A   Clear
8:56 PM 84.9 °F 12.0 °F 7% 29.70 in 9.0 mi WNW 24.2 mph 36.8 mph N/A   Clear
9:56 PM 81.0 °F 16.0 °F 9% 29.73 in 9.0 mi NW 19.6 mph 32.2 mph N/A   Clear
10:56 PM 77.0 °F 19.0 °F 11% 29.75 in 10.0 mi NNW 13.8 mph 23.0 mph N/A   Clear
11:56 PM 73.0 °F 19.9 °F 14% 29.76 in 10.0 mi WNW 16.1 mph 21.9 mph N/A   Clear